Вернуться в каталог

STARLINK-36862

АктивенСвязьVLEO
NORAD 68003·PAYLOAD·🇺🇸 United States

Запущен Feb 27, 2026 с Vandenberg Space Force Base

Loading…

Ближайшие Пролёты (ближайшие 24 часа)

TLE

СвежийSource: CelesTrak SupGP

Эпоха: Sep 14, 2026, 20:55 UTC

1 68003C 26039T   26257.87201389  .00035160  00000+0  12736-2 0  2579
2 68003  43.0007  60.7310 0001498 271.6793 104.5491 15.27559199    15

Отслеживайте STARLINK-36862 в реальном времени с AllMySat

Download on the App Store